| time (UTC) | temp F | wind direction | speed MPH | gust MPH | rain 1hr in | rain 24hr in | rain mn in | humidity % | barometer mb |
| 20260510183026 | 64 | 322 | 3.0 | 11.0 | 0.00 | 0.10 | 0.00 | 70 | 1008.2 |
| 20260510182526 | 64 | 329 | 3.0 | 9.0 | 0.00 | 0.11 | 0.00 | 70 | 1008.1 |
| 20260510182026 | 63 | 269 | 3.0 | 13.0 | 0.00 | 0.11 | 0.00 | 72 | 1008.1 |
| 20260510181527 | 63 | 303 | 3.0 | 13.0 | 0.00 | 0.11 | 0.00 | 71 | 1008.1 |
| 20260510181027 | 64 | 227 | 4.0 | 16.0 | 0.00 | 0.12 | 0.00 | 70 | 1008.0 |
| 20260510180527 | 64 | 317 | 5.0 | 16.0 | 0.00 | 0.12 | 0.00 | 71 | 1007.9 |
| 20260510180025 | 64 | 293 | 3.0 | 8.0 | 0.00 | 0.13 | 0.00 | 71 | 1007.8 |
| 20260510175526 | 64 | 217 | 4.0 | 8.0 | 0.00 | 0.14 | 0.00 | 72 | 1007.9 |
| 20260510175025 | 64 | 329 | 4.0 | 13.0 | 0.00 | 0.14 | 0.00 | 74 | 1007.9 |
| 20260510174523 | 63 | 295 | 4.0 | 13.0 | 0.00 | 0.15 | 0.00 | 74 | 1007.9 |
| 20260510174024 | 63 | 173 | 4.0 | 12.0 | 0.00 | 0.16 | 0.00 | 75 | 1007.8 |
| 20260510173525 | 63 | 183 | 3.0 | 11.0 | 0.00 | 0.16 | 0.00 | 74 | 1007.9 |
| 20260510173254 | 62 | 309 | 3.0 | 9.0 | 0.00 | 0.17 | 0.00 | 76 | 1008.0 |
| 20260510172524 | 62 | 108 | 3.0 | 9.0 | 0.00 | 0.18 | 0.00 | 75 | 1007.9 |
| 20260510172024 | 62 | 289 | 3.0 | 9.0 | 0.00 | 0.18 | 0.00 | 76 | 1008.0 |
| 20260510171524 | 61 | 260 | 4.0 | 10.0 | 0.00 | 0.19 | 0.00 | 77 | 1008.0 |
| 20260510171022 | 61 | 109 | 3.0 | 12.0 | 0.00 | 0.19 | 0.00 | 76 | 1007.9 |
| 20260510170522 | 61 | 186 | 3.0 | 12.0 | 0.00 | 0.19 | 0.00 | 78 | 1008.0 |
| 20260510170022 | 60 | 290 | 3.0 | 9.0 | 0.00 | 0.20 | 0.00 | 78 | 1008.1 |
| 20260510165522 | 60 | 210 | 4.0 | 15.0 | 0.00 | 0.20 | 0.00 | 81 | 1008.4 |
| 20260510165253 | 59 | 325 | 4.0 | 15.0 | 0.00 | 0.21 | 0.00 | 79 | 1008.5 |
| 20260510164523 | 60 | 193 | 3.0 | 11.0 | 0.00 | 0.22 | 0.00 | 78 | 1008.5 |
| 20260510164254 | 61 | 4 | 2.0 | 11.0 | 0.00 | 0.22 | 0.00 | 77 | 1008.3 |
| 20260510163522 | 62 | 101 | 2.0 | 8.0 | 0.00 | 0.23 | 0.00 | 75 | 1008.3 |
| 20260510163021 | 62 | 94 | 2.0 | 8.0 | 0.00 | 0.23 | 0.00 | 78 | 1008.2 |
| 20260510162754 | 62 | 137 | 2.0 | 10.0 | 0.00 | 0.24 | 0.00 | 77 | 1008.0 |
| 20260510162020 | 63 | 83 | 3.0 | 12.0 | 0.00 | 0.25 | 0.00 | 76 | 1008.0 |
| 20260510161521 | 63 | 163 | 3.0 | 12.0 | 0.00 | 0.25 | 0.00 | 80 | 1007.8 |
| 20260510161018 | 63 | 310 | 1.0 | 6.0 | 0.00 | 0.26 | 0.00 | 82 | 1007.8 |
| 20260510160517 | 62 | 94 | 1.0 | 5.0 | 0.00 | 0.27 | 0.00 | 85 | 1007.9 |
| 20260510160018 | 61 | 294 | 1.0 | 5.0 | 0.00 | 0.27 | 0.00 | 86 | 1008.0 |
| 20260510155517 | 60 | 161 | 1.0 | 6.0 | 0.00 | 0.28 | 0.00 | 86 | 1007.8 |
| 20260510155023 | 61 | 208 | 2.0 | 7.0 | 0.00 | 0.30 | 0.00 | 84 | 1007.8 |
| 20260510155018 | 60 | 95 | 2.0 | 6.0 | 0.00 | 0.29 | 0.00 | 85 | 1007.8 |
| 20260510154015 | 61 | 229 | 2.0 | 7.0 | 0.00 | 0.31 | 0.00 | 85 | 1007.7 |
| 20260510153516 | 61 | 212 | 1.0 | 7.0 | 0.00 | 0.31 | 0.00 | 83 | 1007.8 |
| 20260510153248 | 61 | 67 | 1.0 | 7.0 | 0.00 | 0.32 | 0.00 | 85 | 1007.8 |
| 20260510152516 | 60 | 71 | 2.0 | 6.0 | 0.00 | 0.33 | 0.00 | 86 | 1007.8 |
| 20260510152015 | 60 | 179 | 2.0 | 6.0 | 0.00 | 0.33 | 0.00 | 85 | 1007.8 |
| 20260510151521 | 60 | 293 | 2.0 | 5.0 | 0.00 | 0.34 | 0.00 | 85 | 1007.6 |
| 20260510151516 | 60 | 106 | 2.0 | 5.0 | 0.00 | 0.33 | 0.00 | 85 | 1007.7 |
| 20260510150513 | 60 | 93 | 1.0 | 6.0 | 0.00 | 0.34 | 0.00 | 89 | 1007.6 |
| 20260510150014 | 59 | 133 | 2.0 | 7.0 | 0.00 | 0.35 | 0.00 | 88 | 1007.6 |
| 20260510145513 | 58 | 202 | 2.0 | 8.0 | 0.00 | 0.36 | 0.00 | 86 | 1007.5 |
| 20260510145014 | 58 | 323 | 2.0 | 8.0 | 0.00 | 0.36 | 0.00 | 87 | 1007.5 |
| 20260510144511 | 58 | 118 | 1.0 | 5.0 | 0.00 | 0.37 | 0.00 | 89 | 1007.5 |
| 20260510144242 | 57 | 23 | 1.0 | 6.0 | 0.00 | 0.37 | 0.00 | 89 | 1007.5 |
| 20260510143513 | 57 | 215 | 1.0 | 6.0 | 0.00 | 0.38 | 0.00 | 89 | 1007.6 |
| 20260510143018 | 57 | 116 | 1.0 | 5.0 | 0.00 | 0.39 | 0.00 | 89 | 1007.6 |
| 20260510143013 | 57 | 211 | 1.0 | 5.0 | 0.00 | 0.38 | 0.00 | 89 | 1007.7 |
| 20260510142011 | 57 | 168 | 1.0 | 5.0 | 0.00 | 0.39 | 0.00 | 89 | 1007.7 |
| 20260510141512 | 57 | 270 | 2.0 | 6.0 | 0.00 | 0.39 | 0.00 | 88 | 1007.6 |
| 20260510141012 | 57 | 215 | 2.0 | 8.0 | 0.00 | 0.40 | 0.00 | 88 | 1007.5 |
| 20260510140512 | 58 | 115 | 1.0 | 8.0 | 0.00 | 0.41 | 0.00 | 87 | 1007.4 |
| 20260510140011 | 57 | 240 | 1.0 | 7.0 | 0.00 | 0.41 | 0.00 | 89 | 1007.4 |
| 20260510135512 | 57 | 54 | 2.0 | 6.0 | 0.00 | 0.42 | 0.00 | 90 | 1007.4 |
| 20260510135011 | 56 | 240 | 2.0 | 6.0 | 0.00 | 0.42 | 0.00 | 91 | 1007.4 |
| 20260510134511 | 56 | 129 | 2.0 | 6.0 | 0.00 | 0.43 | 0.00 | 90 | 1007.5 |
| 20260510134012 | 56 | 175 | 2.0 | 6.0 | 0.00 | 0.43 | 0.00 | 90 | 1007.5 |
| 20260510133511 | 57 | 92 | 2.0 | 6.0 | 0.00 | 0.44 | 0.00 | 90 | 1007.5 |
| 20260510133012 | 56 | 139 | 2.0 | 6.0 | 0.00 | 0.44 | 0.00 | 91 | 1007.5 |
| 20260510132510 | 56 | 151 | 3.0 | 7.0 | 0.00 | 0.44 | 0.00 | 90 | 1007.6 |
| 20260510132010 | 56 | 128 | 2.0 | 8.0 | 0.00 | 0.45 | 0.00 | 90 | 1007.7 |
| 20260510131507 | 56 | 205 | 2.0 | 8.0 | 0.00 | 0.45 | 0.00 | 90 | 1007.6 |
| 20260510131013 | 54 | 226 | 3.0 | 7.0 | 0.00 | 0.45 | 0.00 | 93 | 1007.8 |
| 20260510131008 | 55 | 141 | 2.0 | 8.0 | 0.00 | 0.45 | 0.00 | 92 | 1007.7 |
| 20260510130008 | 54 | 139 | 2.0 | 6.0 | 0.00 | 0.46 | 0.00 | 94 | 1007.7 |
| 20260510125507 | 54 | 174 | 2.0 | 6.0 | 0.00 | 0.46 | 0.00 | 95 | 1007.7 |
| 20260510125239 | 54 | 194 | 2.0 | 6.0 | 0.00 | 0.46 | 0.00 | 95 | 1007.5 |
| 20260510124508 | 54 | 125 | 2.0 | 7.0 | 0.00 | 0.46 | 0.00 | 95 | 1007.5 |
| 20260510124007 | 54 | 217 | 1.0 | 7.0 | 0.00 | 0.46 | 0.00 | 95 | 1007.5 |
| 20260510123506 | 53 | 264 | 1.0 | 5.0 | 0.00 | 0.46 | 0.00 | 96 | 1007.5 |
| 20260510123005 | 53 | 222 | 2.0 | 6.0 | 0.00 | 0.46 | 0.00 | 96 | 1007.6 |
| 20260510122742 | 53 | 149 | 1.0 | 9.0 | 0.00 | 0.46 | 0.00 | 98 | 1007.5 |
| 20260510122506 | 53 | 135 | 2.0 | 9.0 | 0.00 | 0.46 | 0.00 | 97 | 1007.5 |
| 20260510121736 | 52 | 94 | 1.0 | 7.0 | 0.00 | 0.46 | 0.00 | 99 | 1007.6 |
| 20260510121005 | 51 | 295 | 2.0 | 7.0 | 0.00 | 0.46 | 0.00 | 100 | 1007.6 |
| 20260510120505 | 51 | 236 | 2.0 | 6.0 | 0.00 | 0.46 | 0.00 | 100 | 1007.6 |
| 20260510120006 | 50 | 224 | 2.0 | 5.0 | 0.00 | 0.46 | 0.00 | 100 | 1007.5 |
| 20260510115505 | 50 | 227 | 1.0 | 5.0 | 0.00 | 0.46 | 0.00 | 100 | 1007.5 |
| 20260510115237 | 50 | 274 | 1.0 | 6.0 | 0.00 | 0.46 | 0.00 | 100 | 1007.5 |
| 20260510114505 | 50 | 242 | 1.0 | 6.0 | 0.00 | 0.46 | 0.00 | 100 | 1007.5 |
| 20260510114005 | 50 | 260 | 1.0 | 7.0 | 0.00 | 0.46 | 0.00 | 100 | 1007.5 |
| 20260510113505 | 49 | 239 | 1.0 | 7.0 | 0.00 | 0.46 | 0.00 | 100 | 1007.5 |
| 20260510113006 | 49 | 202 | 0.0 | 3.0 | 0.00 | 0.46 | 0.00 | 100 | 1007.5 |
| 20260510112505 | 49 | 255 | 1.0 | 5.0 | 0.00 | 0.46 | 0.00 | 100 | 1007.4 |
| 20260510112237 | 49 | 168 | 1.0 | 5.0 | 0.00 | 0.46 | 0.00 | 100 | 1007.4 |
| 20260510111505 | 49 | 175 | 1.0 | 5.0 | 0.00 | 0.46 | 0.00 | 100 | 1007.4 |
| 20260510111005 | 49 | 217 | 0.0 | 4.0 | 0.00 | 0.46 | 0.00 | 100 | 1007.2 |
| 20260510110505 | 49 | 143 | 1.0 | 4.0 | 0.00 | 0.46 | 0.00 | 100 | 1007.2 |
| 20260510110005 | 49 | 168 | 1.0 | 4.0 | 0.00 | 0.46 | 0.00 | 100 | 1007.4 |
| 20260510105505 | 49 | 180 | 1.0 | 4.0 | 0.00 | 0.46 | 0.00 | 100 | 1007.3 |
| 20260510105005 | 48 | 203 | 1.0 | 5.0 | 0.00 | 0.46 | 0.00 | 100 | 1007.1 |
| 20260510104503 | 48 | 220 | 1.0 | 5.0 | 0.00 | 0.46 | 0.00 | 100 | 1007.0 |
| 20260510104003 | 48 | 202 | 1.0 | 5.0 | 0.00 | 0.46 | 0.00 | 100 | 1006.8 |
| 20260510103502 | 48 | 242 | 1.0 | 5.0 | 0.00 | 0.46 | 0.00 | 100 | 1006.9 |
| 20260510103001 | 48 | 253 | 1.0 | 4.0 | 0.00 | 0.46 | 0.00 | 100 | 1006.8 |
| 20260510102500 | 48 | 292 | 1.0 | 6.0 | 0.00 | 0.46 | 0.00 | 100 | 1006.7 |
| 20260510101957 | 48 | 178 | 1.0 | 6.0 | 0.00 | 0.46 | 0.00 | 100 | 1006.4 |
| 20260510101458 | 48 | 255 | 1.0 | 5.0 | 0.00 | 0.46 | 0.00 | 100 | 1006.3 |
| 20260510101229 | 48 | 236 | 0.0 | 3.0 | 0.00 | 0.46 | 0.00 | 100 | 1006.2 |
| 20260510100455 | 48 | 265 | 0.0 | 3.0 | 0.00 | 0.46 | 0.00 | 100 | 1006.0 |
| 20260510100226 | 48 | 220 | 1.0 | 4.0 | 0.00 | 0.46 | 0.00 | 100 | 1005.7 |
| 20260510095455 | 48 | 217 | 1.0 | 4.0 | 0.00 | 0.46 | 0.00 | 100 | 1005.7 |
| 20260510094953 | 48 | 283 | 1.0 | 6.0 | 0.00 | 0.46 | 0.00 | 100 | 1005.8 |
| 20260510094453 | 47 | 142 | 0.0 | 6.0 | 0.00 | 0.46 | 0.00 | 100 | 1005.7 |
| 20260510093953 | 47 | 174 | 0.0 | 1.0 | 0.00 | 0.46 | 0.00 | 100 | 1005.6 |
| 20260510093452 | 47 | 183 | 0.0 | 1.0 | 0.00 | 0.46 | 0.00 | 100 | 1005.8 |
| 20260510092951 | 46 | 142 | 0.0 | 0.0 | 0.00 | 0.46 | 0.00 | 100 | 1005.9 |
| 20260510092722 | 47 | 142 | 0.0 | 0.0 | 0.00 | 0.46 | 0.00 | 100 | 1005.8 |
| 20260510091958 | 47 | 142 | 0.0 | 0.0 | 0.00 | 0.46 | 0.00 | 100 | 1005.8 |
| 20260510091953 | 47 | 142 | 0.0 | 0.0 | 0.00 | 0.46 | 0.00 | 100 | 1005.9 |
| 20260510090951 | 47 | 142 | 0.0 | 0.0 | 0.00 | 0.46 | 0.00 | 100 | 1005.5 |
| 20260510090722 | 47 | 141 | 0.0 | 0.0 | 0.00 | 0.46 | 0.00 | 100 | 1005.5 |
| 20260510085951 | 47 | 215 | 0.0 | 0.0 | 0.00 | 0.46 | 0.00 | 100 | 1005.5 |
| 20260510085451 | 47 | 206 | 0.0 | 2.0 | 0.00 | 0.46 | 0.00 | 100 | 1005.6 |
| 20260510084951 | 47 | 206 | 0.0 | 2.0 | 0.00 | 0.46 | 0.00 | 100 | 1005.6 |
| 20260510084451 | 47 | 210 | 0.0 | 2.0 | 0.00 | 0.46 | 0.00 | 100 | 1005.4 |
| 20260510083951 | 47 | 222 | 0.0 | 1.0 | 0.00 | 0.46 | 0.00 | 100 | 1005.6 |
| 20260510083450 | 47 | 251 | 0.0 | 2.0 | 0.00 | 0.46 | 0.00 | 100 | 1005.8 |
| 20260510082951 | 48 | 234 | 0.0 | 2.0 | 0.00 | 0.46 | 0.00 | 100 | 1006.2 |
| 20260510082449 | 48 | 246 | 0.0 | 1.0 | 0.00 | 0.46 | 0.00 | 100 | 1006.3 |
| 20260510081950 | 47 | 272 | 0.0 | 1.0 | 0.00 | 0.46 | 0.00 | 100 | 1006.2 |
| 20260510081720 | 47 | 174 | 0.0 | 1.0 | 0.00 | 0.46 | 0.00 | 100 | 1006.2 |
| 20260510081221 | 47 | 226 | 0.0 | 1.0 | 0.00 | 0.46 | 0.00 | 100 | 1006.3 |
| 20260510080449 | 47 | 238 | 0.0 | 0.0 | 0.00 | 0.46 | 0.00 | 100 | 1006.3 |
| 20260510080220 | 47 | 238 | 0.0 | 1.0 | 0.00 | 0.46 | 0.00 | 100 | 1006.0 |
| 20260510075449 | 47 | 260 | 0.0 | 1.0 | 0.00 | 0.46 | 0.00 | 100 | 1006.0 |
| 20260510074949 | 47 | 206 | 0.0 | 0.0 | 0.00 | 0.46 | 0.00 | 100 | 1006.2 |
| 20260510074449 | 47 | 206 | 0.0 | 0.0 | 0.00 | 0.46 | 0.00 | 100 | 1006.3 |
| 20260510073947 | 46 | 206 | 0.0 | 0.0 | 0.00 | 0.46 | 0.00 | 100 | 1006.3 |
| 20260510073724 | 46 | 206 | 0.0 | 0.0 | 0.00 | 0.46 | 0.00 | 100 | 1006.0 |
| 20260510073448 | 46 | 206 | 0.0 | 0.0 | 0.00 | 0.46 | 0.00 | 100 | 1006.2 |
| 20260510072447 | 46 | 206 | 0.0 | 0.0 | 0.00 | 0.46 | 0.00 | 100 | 1006.2 |
| 20260510071947 | 46 | 206 | 0.0 | 0.0 | 0.00 | 0.46 | 0.00 | 100 | 1006.0 |
| 20260510071447 | 46 | 206 | 0.0 | 0.0 | 0.00 | 0.46 | 0.00 | 100 | 1006.0 |
| 20260510070947 | 46 | 206 | 0.0 | 0.0 | 0.00 | 0.46 | 0.00 | 100 | 1005.8 |
| 20260510070447 | 47 | 206 | 0.0 | 0.0 | 0.00 | 0.46 | 0.00 | 100 | 1005.8 |
| 20260510070218 | 47 | 214 | 0.0 | 0.0 | 0.00 | 0.46 | 0.00 | 100 | 1005.9 |
| 20260510065446 | 47 | 214 | 0.0 | 0.0 | 0.00 | 0.46 | 0.00 | 100 | 1005.8 |
| 20260510064945 | 47 | 214 | 0.0 | 0.0 | 0.00 | 0.46 | 0.00 | 100 | 1005.8 |
| 20260510064445 | 47 | 214 | 0.0 | 0.0 | 0.00 | 0.46 | 0.00 | 100 | 1005.9 |
| 20260510063945 | 47 | 214 | 0.0 | 0.0 | 0.00 | 0.46 | 0.00 | 100 | 1005.9 |
| 20260510063445 | 47 | 214 | 0.0 | 0.0 | 0.00 | 0.46 | 0.00 | 100 | 1005.9 |
| 20260510062945 | 47 | 214 | 0.0 | 0.0 | 0.00 | 0.46 | 0.00 | 100 | 1006.0 |
| 20260510062445 | 47 | 214 | 0.0 | 0.0 | 0.00 | 0.46 | 0.00 | 100 | 1006.0 |
| 20260510062215 | 47 | 214 | 0.0 | 0.0 | 0.00 | 0.46 | 0.00 | 100 | 1006.2 |
| 20260510061446 | 47 | 214 | 0.0 | 0.0 | 0.00 | 0.46 | 0.00 | 100 | 1006.2 |
| 20260510060945 | 47 | 214 | 0.0 | 0.0 | 0.00 | 0.46 | 0.00 | 100 | 1005.9 |
| 20260510060717 | 47 | 214 | 0.0 | 0.0 | 0.00 | 0.46 | 0.00 | 100 | 1006.0 |
| 20260510055944 | 47 | 234 | 0.0 | 0.0 | 0.00 | 0.46 | 0.00 | 100 | 1006.3 |
| 20260510055448 | 47 | 235 | 0.0 | 0.0 | 0.00 | 0.46 | 0.00 | 100 | 1006.3 |
| 20260510055443 | 47 | 235 | 0.0 | 0.0 | 0.00 | 0.46 | 0.00 | 100 | 1006.2 |
| 20260510054438 | 47 | 235 | 0.0 | 0.0 | 0.00 | 0.46 | 0.00 | 100 | 1006.3 |
| 20260510054209 | 47 | 180 | 0.0 | 0.0 | 0.00 | 0.46 | 0.00 | 100 | 1006.2 |
| 20260510053437 | 47 | 180 | 0.0 | 0.0 | 0.00 | 0.46 | 0.00 | 100 | 1006.3 |
| 20260510052935 | 47 | 180 | 0.0 | 0.0 | 0.00 | 0.46 | 0.00 | 100 | 1006.3 |
| 20260510052434 | 47 | 180 | 0.0 | 0.0 | 0.00 | 0.46 | 0.00 | 100 | 1006.3 |
| 20260510051933 | 47 | 180 | 0.0 | 0.0 | 0.00 | 0.46 | 0.00 | 100 | 1006.2 |
| 20260510051433 | 47 | 180 | 0.0 | 0.0 | 0.00 | 0.46 | 0.00 | 100 | 1006.3 |
| 20260510050933 | 47 | 180 | 0.0 | 0.0 | 0.00 | 0.46 | 0.00 | 100 | 1006.5 |
| 20260510050430 | 47 | 180 | 0.0 | 0.0 | 0.00 | 0.46 | 0.00 | 100 | 1006.6 |
| 20260510045929 | 47 | 180 | 0.0 | 1.0 | 0.00 | 0.46 | 0.00 | 100 | 1006.5 |
| 20260510045429 | 47 | 180 | 0.0 | 1.0 | 0.00 | 0.46 | 0.00 | 100 | 1006.5 |
| 20260510044929 | 47 | 203 | 0.0 | 0.0 | 0.00 | 0.46 | 0.00 | 100 | 1006.5 |
| 20260510044429 | 47 | 203 | 0.0 | 0.0 | 0.00 | 0.46 | 0.00 | 100 | 1006.7 |
| 20260510044159 | 47 | 203 | 0.0 | 0.0 | 0.00 | 0.46 | 0.00 | 100 | 1006.7 |
| 20260510043429 | 47 | 203 | 0.0 | 1.0 | 0.00 | 0.46 | 0.00 | 100 | 1006.6 |
| 20260510042928 | 47 | 203 | 0.0 | 1.0 | 0.00 | 0.46 | 0.00 | 100 | 1006.7 |
| 20260510042425 | 47 | 231 | 0.0 | 1.0 | 0.00 | 0.46 | 0.00 | 100 | 1006.7 |
| 20260510041930 | 47 | 206 | 0.0 | 1.0 | 0.00 | 0.46 | 0.00 | 100 | 1006.6 |
| 20260510041924 | 47 | 231 | 0.0 | 1.0 | 0.00 | 0.46 | 0.00 | 100 | 1006.7 |
| 20260510040925 | 47 | 277 | 0.0 | 2.0 | 0.00 | 0.46 | 0.00 | 100 | 1006.6 |
| 20260510040655 | 47 | 98 | 0.0 | 2.0 | 0.00 | 0.46 | 0.00 | 100 | 1006.7 |
| 20260510035925 | 47 | 163 | 0.0 | 2.0 | 0.00 | 0.46 | 0.46 | 100 | 1006.8 |
| 20260510035425 | 47 | 128 | 0.0 | 1.0 | 0.00 | 0.46 | 0.46 | 100 | 1006.7 |
| 20260510034925 | 47 | 139 | 0.0 | 1.0 | 0.00 | 0.46 | 0.46 | 100 | 1006.7 |
| 20260510034423 | 47 | 142 | 0.0 | 2.0 | 0.00 | 0.46 | 0.46 | 100 | 1006.7 |
| 20260510033923 | 47 | 287 | 0.0 | 2.0 | 0.00 | 0.46 | 0.46 | 100 | 1006.8 |
| 20260510033423 | 47 | 165 | 0.0 | 2.0 | 0.00 | 0.46 | 0.46 | 100 | 1006.8 |
| 20260510033201 | 47 | 232 | 0.0 | 1.0 | 0.00 | 0.46 | 0.46 | 100 | 1006.7 |
| 20260510032923 | 47 | 217 | 0.0 | 2.0 | 0.00 | 0.46 | 0.46 | 100 | 1006.8 |
| 20260510031921 | 47 | 254 | 0.0 | 3.0 | 0.00 | 0.46 | 0.46 | 100 | 1006.7 |
| 20260510031652 | 47 | 169 | 0.0 | 3.0 | 0.00 | 0.46 | 0.46 | 100 | 1006.8 |
| 20260510030920 | 47 | 135 | 0.0 | 2.0 | 0.00 | 0.46 | 0.46 | 100 | 1006.7 |
| 20260510030651 | 48 | 137 | 0.0 | 2.0 | 0.00 | 0.46 | 0.46 | 100 | 1006.7 |
| 20260510025921 | 48 | 320 | 0.0 | 2.0 | 0.00 | 0.46 | 0.46 | 100 | 1006.8 |
| 20260510025421 | 47 | 140 | 0.0 | 2.0 | 0.00 | 0.46 | 0.46 | 100 | 1006.7 |
| 20260510024921 | 47 | 198 | 0.0 | 0.0 | 0.00 | 0.46 | 0.46 | 100 | 1006.8 |
| 20260510024421 | 47 | 200 | 0.0 | 0.0 | 0.00 | 0.46 | 0.46 | 100 | 1006.7 |
| 20260510023920 | 47 | 199 | 0.0 | 1.0 | 0.00 | 0.46 | 0.46 | 100 | 1006.7 |
| 20260510023421 | 47 | 229 | 0.0 | 1.0 | 0.00 | 0.46 | 0.46 | 100 | 1006.8 |
| 20260510023150 | 47 | 283 | 0.0 | 3.0 | 0.00 | 0.46 | 0.46 | 100 | 1007.0 |
| 20260510022419 | 47 | 113 | 0.0 | 3.0 | 0.00 | 0.46 | 0.46 | 100 | 1007.1 |
| 20260510021919 | 47 | 111 | 0.0 | 2.0 | 0.00 | 0.46 | 0.46 | 100 | 1007.1 |
| 20260510021418 | 47 | 208 | 0.0 | 3.0 | 0.00 | 0.46 | 0.46 | 100 | 1007.2 |
| 20260510020919 | 47 | 294 | 0.0 | 4.0 | 0.00 | 0.46 | 0.46 | 100 | 1007.2 |
| 20260510020416 | 47 | 270 | 0.0 | 4.0 | 0.00 | 0.46 | 0.46 | 100 | 1007.3 |
| 20260510015917 | 47 | 214 | 0.0 | 3.0 | 0.00 | 0.46 | 0.46 | 100 | 1007.3 |
| 20260510015417 | 47 | 265 | 0.0 | 3.0 | 0.00 | 0.46 | 0.46 | 100 | 1007.2 |
| 20260510014915 | 47 | 143 | 0.0 | 2.0 | 0.00 | 0.46 | 0.46 | 100 | 1007.1 |
| 20260510014644 | 47 | 143 | 0.0 | 2.0 | 0.00 | 0.46 | 0.46 | 100 | 1007.0 |
| 20260510013911 | 47 | 177 | 0.0 | 2.0 | 0.00 | 0.46 | 0.46 | 100 | 1007.1 |
| 20260510013408 | 47 | 180 | 0.0 | 2.0 | 0.00 | 0.46 | 0.46 | 100 | 1007.3 |
| 20260510012909 | 46 | 69 | 0.0 | 0.0 | 0.00 | 0.46 | 0.46 | 100 | 1007.2 |
| 20260510012409 | 46 | 69 | 0.0 | 0.0 | 0.00 | 0.46 | 0.46 | 100 | 1007.2 |
| 20260510012140 | 46 | 69 | 0.0 | 0.0 | 0.00 | 0.46 | 0.46 | 100 | 1007.1 |
| 20260510011407 | 46 | 69 | 0.0 | 0.0 | 0.00 | 0.46 | 0.46 | 100 | 1007.1 |
| 20260510011136 | 46 | 69 | 0.0 | 0.0 | 0.00 | 0.46 | 0.46 | 100 | 1007.0 |
| 20260510010635 | 46 | 69 | 0.0 | 0.0 | 0.00 | 0.46 | 0.46 | 100 | 1007.0 |
| 20260510010135 | 46 | 69 | 0.0 | 0.0 | 0.00 | 0.46 | 0.46 | 100 | 1007.2 |
| 20260510005403 | 46 | 69 | 0.0 | 0.0 | 0.00 | 0.46 | 0.46 | 100 | 1007.1 |
| 20260510004901 | 46 | 69 | 0.0 | 0.0 | 0.00 | 0.46 | 0.46 | 100 | 1007.0 |
| 20260510004400 | 46 | 69 | 0.0 | 0.0 | 0.00 | 0.46 | 0.46 | 100 | 1006.9 |
| 20260510003900 | 46 | 69 | 0.0 | 0.0 | 0.00 | 0.46 | 0.46 | 100 | 1006.9 |
| 20260510003359 | 46 | 69 | 0.0 | 0.0 | 0.00 | 0.46 | 0.46 | 100 | 1006.8 |
| 20260510002859 | 46 | 69 | 0.0 | 0.0 | 0.00 | 0.46 | 0.46 | 100 | 1006.8 |
| 20260510002356 | 46 | 69 | 0.0 | 0.0 | 0.00 | 0.46 | 0.46 | 100 | 1006.8 |
| 20260510001857 | 46 | 69 | 0.0 | 0.0 | 0.00 | 0.46 | 0.46 | 100 | 1006.7 |
| 20260510001356 | 46 | 69 | 0.0 | 0.0 | 0.00 | 0.46 | 0.46 | 100 | 1006.8 |
| 20260510000855 | 46 | 69 | 0.0 | 0.0 | 0.00 | 0.46 | 0.46 | 100 | 1006.6 |
| 20260510000356 | 46 | 69 | 0.0 | 0.0 | 0.00 | 0.46 | 0.46 | 100 | 1006.6 |
| 20260510000126 | 46 | 69 | 0.0 | 0.0 | 0.00 | 0.46 | 0.46 | 100 | 1006.5 |
| 20260509235353 | 46 | 69 | 0.0 | 0.0 | 0.00 | 0.46 | 0.46 | 100 | 1006.5 |
| 20260509234852 | 46 | 69 | 0.0 | 0.0 | 0.00 | 0.46 | 0.46 | 100 | 1006.4 |
| 20260509234352 | 46 | 69 | 0.0 | 0.0 | 0.00 | 0.46 | 0.46 | 100 | 1006.5 |
| 20260509233852 | 46 | 69 | 0.0 | 0.0 | 0.00 | 0.46 | 0.46 | 100 | 1006.5 |
| 20260509233623 | 46 | 69 | 0.0 | 0.0 | 0.00 | 0.46 | 0.46 | 100 | 1006.4 |
| 20260509232852 | 47 | 69 | 0.0 | 0.0 | 0.00 | 0.46 | 0.46 | 100 | 1006.5 |
| 20260509232353 | 47 | 69 | 0.0 | 0.0 | 0.00 | 0.46 | 0.46 | 100 | 1006.5 |
| 20260509231852 | 47 | 69 | 0.0 | 0.0 | 0.00 | 0.46 | 0.46 | 99 | 1006.4 |
| 20260509231352 | 47 | 69 | 0.0 | 0.0 | 0.00 | 0.46 | 0.46 | 99 | 1006.5 |
| 20260509230852 | 47 | 69 | 0.0 | 0.0 | 0.00 | 0.46 | 0.46 | 99 | 1006.5 |
| 20260509230353 | 47 | 69 | 0.0 | 0.0 | 0.00 | 0.46 | 0.46 | 99 | 1006.5 |
| 20260509225852 | 47 | 69 | 0.0 | 0.0 | 0.00 | 0.46 | 0.46 | 99 | 1006.6 |
| 20260509225623 | 47 | 69 | 0.0 | 0.0 | 0.00 | 0.46 | 0.46 | 99 | 1006.5 |
| 20260509224852 | 47 | 69 | 0.0 | 0.0 | 0.00 | 0.46 | 0.46 | 99 | 1006.5 |
| 20260509224623 | 47 | 69 | 0.0 | 0.0 | 0.00 | 0.46 | 0.46 | 99 | 1006.6 |
| 20260509223852 | 47 | 69 | 0.0 | 0.0 | 0.00 | 0.46 | 0.46 | 99 | 1006.5 |
| 20260509223353 | 46 | 69 | 0.0 | 0.0 | 0.00 | 0.46 | 0.46 | 99 | 1006.5 |
| 20260509222852 | 47 | 69 | 0.0 | 0.0 | 0.00 | 0.46 | 0.46 | 99 | 1006.5 |
| 20260509222352 | 47 | 279 | 0.0 | 0.0 | 0.00 | 0.46 | 0.46 | 99 | 1006.5 |
| 20260509221853 | 46 | 287 | 0.0 | 0.0 | 0.00 | 0.46 | 0.46 | 99 | 1006.5 |
| 20260509221352 | 46 | 287 | 0.0 | 0.0 | 0.00 | 0.46 | 0.46 | 99 | 1006.5 |
| 20260509220852 | 46 | 158 | 0.0 | 1.0 | 0.00 | 0.46 | 0.46 | 99 | 1006.5 |
| 20260509220352 | 46 | 159 | 0.0 | 1.0 | 0.01 | 0.46 | 0.46 | 99 | 1006.5 |
| 20260509215850 | 46 | 217 | 0.0 | 1.0 | 0.01 | 0.46 | 0.46 | 99 | 1006.6 |
| 20260509215356 | 46 | 175 | 0.0 | 1.0 | 0.01 | 0.46 | 0.46 | 99 | 1006.7 |
| 20260509215350 | 46 | 89 | 0.0 | 1.0 | 0.01 | 0.46 | 0.46 | 99 | 1006.6 |
| 20260509214346 | 46 | 172 | 0.0 | 1.0 | 0.01 | 0.46 | 0.46 | 99 | 1006.6 |
| 20260509213846 | 46 | 88 | 0.0 | 1.0 | 0.01 | 0.46 | 0.46 | 99 | 1006.8 |
| 20260509213346 | 46 | 88 | 0.0 | 1.0 | 0.01 | 0.46 | 0.46 | 99 | 1006.8 |
| 20260509212846 | 46 | 88 | 0.0 | 1.0 | 0.01 | 0.46 | 0.46 | 99 | 1006.8 |
| 20260509212346 | 46 | 319 | 0.0 | 1.0 | 0.01 | 0.46 | 0.46 | 99 | 1006.9 |
| 20260509211844 | 46 | 141 | 0.0 | 2.0 | 0.01 | 0.46 | 0.46 | 99 | 1006.9 |
| 20260509211344 | 45 | 215 | 0.0 | 2.0 | 0.01 | 0.46 | 0.46 | 99 | 1006.9 |
| 20260509210842 | 45 | 132 | 0.0 | 1.0 | 0.02 | 0.46 | 0.46 | 99 | 1007.0 |
| 20260509210341 | 46 | 132 | 0.0 | 1.0 | 0.01 | 0.45 | 0.45 | 99 | 1007.0 |
| 20260509205840 | 45 | 165 | 1.0 | 3.0 | 0.01 | 0.45 | 0.45 | 98 | 1007.0 |
| 20260509205612 | 45 | 214 | 0.0 | 3.0 | 0.01 | 0.45 | 0.45 | 98 | 1007.0 |
| 20260509204840 | 46 | 175 | 0.0 | 2.0 | 0.02 | 0.45 | 0.45 | 98 | 1007.0 |
| 20260509204340 | 45 | 319 | 0.0 | 2.0 | 0.02 | 0.45 | 0.45 | 98 | 1007.1 |
| 20260509204110 | 45 | 215 | 0.0 | 2.0 | 0.02 | 0.45 | 0.45 | 98 | 1007.2 |
| 20260509203340 | 45 | 215 | 0.0 | 3.0 | 0.02 | 0.45 | 0.45 | 98 | 1007.3 |
| 20260509202840 | 45 | 225 | 0.0 | 3.0 | 0.03 | 0.45 | 0.45 | 98 | 1007.3 |
| 20260509202611 | 45 | 222 | 0.0 | 2.0 | 0.03 | 0.45 | 0.45 | 98 | 1007.4 |
| 20260509202111 | 45 | 261 | 0.0 | 2.0 | 0.04 | 0.45 | 0.45 | 98 | 1007.5 |
| 20260509201339 | 45 | 229 | 0.0 | 2.0 | 0.04 | 0.45 | 0.45 | 98 | 1007.4 |
| 20260509200839 | 45 | 284 | 0.0 | 2.0 | 0.04 | 0.44 | 0.44 | 98 | 1007.4 |
| 20260509200610 | 46 | 132 | 0.0 | 2.0 | 0.04 | 0.44 | 0.44 | 98 | 1007.2 |
| 20260509195838 | 45 | 132 | 0.0 | 2.0 | 0.05 | 0.44 | 0.44 | 98 | 1007.2 |
| 20260509195336 | 46 | 101 | 0.0 | 1.0 | 0.05 | 0.44 | 0.44 | 98 | 1007.2 |
| 20260509194836 | 45 | 233 | 0.0 | 1.0 | 0.05 | 0.43 | 0.43 | 98 | 1007.1 |
| 20260509194336 | 45 | 228 | 0.0 | 2.0 | 0.06 | 0.43 | 0.43 | 98 | 1007.2 |
| 20260509193837 | 45 | 236 | 0.0 | 2.0 | 0.06 | 0.43 | 0.43 | 98 | 1007.4 |
| 20260509193337 | 45 | 201 | 0.0 | 2.0 | 0.07 | 0.43 | 0.43 | 98 | 1007.5 |
| 20260509192837 | 45 | 287 | 1.0 | 3.0 | 0.06 | 0.42 | 0.42 | 98 | 1007.4 |
| 20260509192336 | 45 | 268 | 1.0 | 3.0 | 0.07 | 0.42 | 0.42 | 98 | 1007.5 |
| 20260509191835 | 45 | 208 | 1.0 | 3.0 | 0.06 | 0.41 | 0.41 | 98 | 1007.5 |
| 20260509191334 | 45 | 258 | 1.0 | 6.0 | 0.07 | 0.41 | 0.41 | 98 | 1007.7 |
| 20260509190834 | 45 | 208 | 1.0 | 6.0 | 0.06 | 0.40 | 0.40 | 98 | 1007.7 |
| 20260509190334 | 45 | 211 | 1.0 | 3.0 | 0.07 | 0.40 | 0.40 | 98 | 1007.8 |
| 20260509185839 | 45 | 217 | 1.0 | 4.0 | 0.07 | 0.39 | 0.39 | 97 | 1007.8 |
| 20260509185834 | 45 | 64 | 1.0 | 4.0 | 0.06 | 0.39 | 0.39 | 98 | 1007.8 |
| 20260509184833 | 45 | 289 | 1.0 | 3.0 | 0.07 | 0.38 | 0.38 | 97 | 1007.8 |
| 20260509184605 | 45 | 253 | 0.0 | 3.0 | 0.06 | 0.37 | 0.37 | 98 | 1007.8 |
| 20260509184106 | 45 | 257 | 0.0 | 3.0 | 0.07 | 0.37 | 0.37 | 98 | 1007.8 |
| 20260509183334 | 45 | 265 | 1.0 | 4.0 | 0.07 | 0.36 | 0.36 | 98 | 1007.9 |